Year,Month,Day,Hour,Minute,Value (Times are PST for temperature in C)
2014,12,07,08,27,8.90
2014,12,07,08,28,8.90
2014,12,07,08,29,8.90
2014,12,07,08,30,9.00
2014,12,07,08,31,9.00
2014,12,07,08,32,9.00
2014,12,07,08,33,9.00
2014,12,07,08,34,9.00
2014,12,07,08,35,9.00
2014,12,07,08,36,9.00
2014,12,07,08,37,8.90
2014,12,07,08,38,8.90
2014,12,07,08,39,8.90
2014,12,07,08,40,8.90
2014,12,07,08,41,8.90
2014,12,07,08,42,8.90
2014,12,07,08,43,8.90
2014,12,07,08,44,8.90
2014,12,07,08,45,8.90
2014,12,07,08,46,8.90
2014,12,07,08,47,8.90
2014,12,07,08,48,8.90
2014,12,07,08,49,8.90
2014,12,07,08,50,8.90
2014,12,07,08,51,8.90
2014,12,07,08,52,8.90
2014,12,07,08,53,8.90
2014,12,07,08,54,8.90
2014,12,07,08,55,8.90
2014,12,07,08,56,8.90
2014,12,07,08,57,9.00
2014,12,07,08,58,9.00
2014,12,07,08,59,9.00
2014,12,07,09,00,9.00
2014,12,07,09,01,9.00
2014,12,07,09,02,9.00
2014,12,07,09,03,9.00
2014,12,07,09,04,9.00
2014,12,07,09,05,9.00
2014,12,07,09,06,9.00
2014,12,07,09,07,9.00
2014,12,07,09,08,9.00
2014,12,07,09,09,9.00
2014,12,07,09,10,9.00
2014,12,07,09,11,9.00
2014,12,07,09,12,9.00
2014,12,07,09,13,9.00
2014,12,07,09,14,9.00
2014,12,07,09,15,9.00
2014,12,07,09,16,9.00
2014,12,07,09,17,9.10
2014,12,07,09,18,9.10
2014,12,07,09,19,9.10
2014,12,07,09,20,9.10
2014,12,07,09,21,9.10
2014,12,07,09,22,9.10
2014,12,07,09,23,9.10
2014,12,07,09,24,9.10
2014,12,07,09,25,9.10
2014,12,07,09,26,9.10
2014,12,07,09,27,9.10
2014,12,07,09,28,9.10
2014,12,07,09,29,9.10
2014,12,07,09,30,9.10
2014,12,07,09,31,9.10
2014,12,07,09,32,9.20
2014,12,07,09,33,9.20
2014,12,07,09,34,9.20
2014,12,07,09,35,9.20
2014,12,07,09,36,9.20
2014,12,07,09,37,9.20
2014,12,07,09,38,9.20
2014,12,07,09,39,9.20
2014,12,07,09,40,9.20
2014,12,07,09,41,9.20
2014,12,07,09,42,9.20
2014,12,07,09,43,9.20
2014,12,07,09,44,9.20
2014,12,07,09,45,9.20
2014,12,07,09,46,9.30
2014,12,07,09,47,9.30
2014,12,07,09,48,9.30
2014,12,07,09,49,9.30
2014,12,07,09,50,9.30
2014,12,07,09,51,9.30
2014,12,07,09,52,9.40
2014,12,07,09,53,9.40
2014,12,07,09,54,9.40
2014,12,07,09,55,9.40
2014,12,07,09,56,9.50
2014,12,07,09,57,9.50
2014,12,07,09,58,9.50
2014,12,07,09,59,9.50
2014,12,07,10,00,9.50
2014,12,07,10,01,9.50
2014,12,07,10,02,9.50
2014,12,07,10,03,9.50
2014,12,07,10,04,9.50
2014,12,07,10,05,9.60
2014,12,07,10,06,9.60
2014,12,07,10,07,9.60
2014,12,07,10,08,9.60
2014,12,07,10,09,9.60
2014,12,07,10,10,9.60
2014,12,07,10,11,9.60
2014,12,07,10,12,9.60
2014,12,07,10,13,9.60
2014,12,07,10,14,9.60
2014,12,07,10,15,9.60
2014,12,07,10,16,9.60
2014,12,07,10,17,9.60
2014,12,07,10,18,9.60
2014,12,07,10,19,9.60
2014,12,07,10,20,9.60
2014,12,07,10,21,9.60
2014,12,07,10,22,9.60
2014,12,07,10,23,9.70
2014,12,07,10,24,9.70
2014,12,07,10,25,9.70
2014,12,07,10,26,9.70
2014,12,07,10,27,9.70
2014,12,07,10,28,9.70
2014,12,07,10,29,9.70
2014,12,07,10,30,9.60
2014,12,07,10,31,9.70
2014,12,07,10,32,9.60
2014,12,07,10,33,9.60
2014,12,07,10,34,9.70
2014,12,07,10,35,9.60
2014,12,07,10,36,9.70
2014,12,07,10,37,9.70
2014,12,07,10,38,9.70
2014,12,07,10,39,9.70
2014,12,07,10,40,9.70
2014,12,07,10,41,9.70
2014,12,07,10,42,9.70
2014,12,07,10,43,9.70
2014,12,07,10,44,9.70
2014,12,07,10,45,9.70
2014,12,07,10,46,9.70
2014,12,07,10,47,9.70
2014,12,07,10,48,9.70
2014,12,07,10,49,9.70
2014,12,07,10,50,9.70
2014,12,07,10,51,9.70
2014,12,07,10,52,9.70
2014,12,07,10,53,9.70
2014,12,07,10,54,9.70
2014,12,07,10,55,9.70
2014,12,07,10,56,9.70
2014,12,07,10,57,9.80
2014,12,07,10,58,9.80
2014,12,07,10,59,9.80
2014,12,07,11,00,9.80
2014,12,07,11,01,9.80
2014,12,07,11,02,9.80
2014,12,07,11,03,9.80
2014,12,07,11,04,9.80
2014,12,07,11,05,9.80
2014,12,07,11,06,9.80
2014,12,07,11,07,9.80
2014,12,07,11,08,9.80
2014,12,07,11,09,9.80
2014,12,07,11,10,9.90
2014,12,07,11,11,9.90
2014,12,07,11,12,9.90
2014,12,07,11,13,10.00
2014,12,07,11,14,10.00
2014,12,07,11,15,10.00
2014,12,07,11,16,10.10
2014,12,07,11,17,10.10
2014,12,07,11,18,10.10
2014,12,07,11,19,10.10
2014,12,07,11,20,10.20
2014,12,07,11,21,10.20
2014,12,07,11,22,10.20
2014,12,07,11,23,10.20
2014,12,07,11,24,10.30
2014,12,07,11,25,10.30
2014,12,07,11,26,10.30
2014,12,07,11,27,10.30
2014,12,07,11,28,10.40
2014,12,07,11,29,10.40
2014,12,07,11,30,10.40
2014,12,07,11,31,10.40
2014,12,07,11,32,10.40
2014,12,07,11,33,10.40
2014,12,07,11,34,10.40
2014,12,07,11,35,10.40
2014,12,07,11,36,10.50
2014,12,07,11,37,10.50
2014,12,07,11,38,10.50
2014,12,07,11,39,10.50
2014,12,07,11,40,10.60
2014,12,07,11,41,10.60
2014,12,07,11,42,10.60
2014,12,07,11,43,10.60
2014,12,07,11,44,10.60
2014,12,07,11,45,10.60
2014,12,07,11,46,10.70
2014,12,07,11,47,10.80
2014,12,07,11,48,10.80
2014,12,07,11,49,10.90
2014,12,07,11,50,11.00
2014,12,07,11,51,11.00
2014,12,07,11,52,11.10
2014,12,07,11,53,11.10
2014,12,07,11,54,11.10
2014,12,07,11,55,11.00
2014,12,07,11,56,11.00
2014,12,07,11,57,11.00
2014,12,07,11,58,11.00
2014,12,07,11,59,11.00
2014,12,07,12,00,11.00
2014,12,07,12,01,10.90
2014,12,07,12,02,10.90
2014,12,07,12,03,10.90
2014,12,07,12,04,10.90
2014,12,07,12,05,10.90
2014,12,07,12,06,10.90
2014,12,07,12,07,11.00
2014,12,07,12,08,11.10
2014,12,07,12,09,11.10
2014,12,07,12,10,11.10
2014,12,07,12,11,11.20
2014,12,07,12,12,11.20
2014,12,07,12,13,11.30
2014,12,07,12,14,11.30
2014,12,07,12,15,11.30
2014,12,07,12,16,11.40
2014,12,07,12,17,11.40
2014,12,07,12,18,11.50
2014,12,07,12,19,11.60
2014,12,07,12,20,11.70
2014,12,07,12,21,11.70
2014,12,07,12,22,11.70
2014,12,07,12,23,11.80
2014,12,07,12,24,11.80
2014,12,07,12,25,11.70
2014,12,07,12,26,11.70
2014,12,07,12,27,11.70
2014,12,07,12,28,11.70
2014,12,07,12,29,11.70
2014,12,07,12,30,11.70
2014,12,07,12,31,11.70
2014,12,07,12,32,11.70
2014,12,07,12,33,11.70
2014,12,07,12,34,11.70
2014,12,07,12,35,11.70
2014,12,07,12,36,11.70
2014,12,07,12,37,11.70
2014,12,07,12,38,11.70
2014,12,07,12,39,11.70
2014,12,07,12,40,11.70
2014,12,07,12,41,11.70
2014,12,07,12,42,11.70
2014,12,07,12,43,11.70
2014,12,07,12,44,11.70
2014,12,07,12,45,11.70
2014,12,07,12,46,11.70
2014,12,07,12,47,11.70
2014,12,07,12,48,11.60
2014,12,07,12,49,11.60
2014,12,07,12,50,11.60
2014,12,07,12,51,11.60
2014,12,07,12,52,11.60
2014,12,07,12,53,11.60
2014,12,07,12,54,11.60
2014,12,07,12,55,11.60
2014,12,07,12,56,11.60
2014,12,07,12,57,11.60
2014,12,07,12,58,11.60
2014,12,07,12,59,11.60
2014,12,07,13,00,11.60
2014,12,07,13,01,11.60
2014,12,07,13,02,11.70
2014,12,07,13,03,11.70
2014,12,07,13,04,11.70
2014,12,07,13,05,11.70
2014,12,07,13,06,11.70
2014,12,07,13,07,11.70
2014,12,07,13,08,11.70
2014,12,07,13,09,11.70
2014,12,07,13,10,11.70
2014,12,07,13,11,11.70
2014,12,07,13,12,11.70
2014,12,07,13,13,11.70
2014,12,07,13,14,11.70
2014,12,07,13,15,11.60
2014,12,07,13,16,11.60
2014,12,07,13,17,11.60
2014,12,07,13,18,11.60
2014,12,07,13,19,11.60
2014,12,07,13,20,11.60
2014,12,07,13,21,11.50
2014,12,07,13,22,11.50
2014,12,07,13,23,11.50
2014,12,07,13,24,11.50
2014,12,07,13,25,11.40
2014,12,07,13,26,11.40
2014,12,07,13,27,11.40
2014,12,07,13,28,11.30
2014,12,07,13,29,11.30
2014,12,07,13,30,11.30
2014,12,07,13,31,11.30
2014,12,07,13,32,11.30
2014,12,07,13,33,11.30
2014,12,07,13,34,11.30
2014,12,07,13,35,11.20
2014,12,07,13,36,11.20
2014,12,07,13,37,11.20
2014,12,07,13,38,11.20
2014,12,07,13,39,11.20
2014,12,07,13,40,11.20
2014,12,07,13,41,11.20
2014,12,07,13,42,11.20
2014,12,07,13,43,11.20
2014,12,07,13,44,11.20
2014,12,07,13,45,11.20
2014,12,07,13,46,11.20
2014,12,07,13,47,11.20
2014,12,07,13,48,11.20
2014,12,07,13,49,11.20
2014,12,07,13,50,11.20
2014,12,07,13,51,11.20
2014,12,07,13,52,11.20
2014,12,07,13,53,11.20
2014,12,07,13,54,11.10
2014,12,07,13,55,11.10
2014,12,07,13,56,11.10
2014,12,07,13,57,11.10
2014,12,07,13,58,11.10
2014,12,07,13,59,11.10
2014,12,07,14,00,11.10
2014,12,07,14,01,11.10
2014,12,07,14,02,11.10
2014,12,07,14,03,11.10
2014,12,07,14,04,11.00
2014,12,07,14,05,11.00
2014,12,07,14,06,11.00
2014,12,07,14,07,11.00
2014,12,07,14,08,11.00
2014,12,07,14,09,11.00
2014,12,07,14,10,11.00
2014,12,07,14,11,10.90
2014,12,07,14,12,10.90
2014,12,07,14,13,10.90
2014,12,07,14,14,10.90
2014,12,07,14,15,10.90
2014,12,07,14,16,10.90
2014,12,07,14,17,10.90
2014,12,07,14,18,10.90
2014,12,07,14,19,10.90
2014,12,07,14,20,10.90
2014,12,07,14,21,10.90
2014,12,07,14,22,10.90
2014,12,07,14,23,10.90
2014,12,07,14,24,10.90
2014,12,07,14,25,10.90
2014,12,07,14,26,10.90
2014,12,07,14,27,10.90
2014,12,07,14,28,10.90
2014,12,07,14,29,10.90
2014,12,07,14,30,11.00
2014,12,07,14,31,11.00
2014,12,07,14,32,11.00
2014,12,07,14,33,11.00
2014,12,07,14,34,11.10
2014,12,07,14,35,11.10
2014,12,07,14,36,11.10
2014,12,07,14,37,11.10
2014,12,07,14,38,11.20
2014,12,07,14,39,11.20
2014,12,07,14,40,11.20
2014,12,07,14,41,11.20
2014,12,07,14,42,11.20
2014,12,07,14,43,11.20
2014,12,07,14,44,11.10
2014,12,07,14,45,11.10
2014,12,07,14,46,11.10
2014,12,07,14,47,11.10
2014,12,07,14,48,11.00
2014,12,07,14,49,11.00
2014,12,07,14,50,11.00
2014,12,07,14,51,11.00
2014,12,07,14,52,10.90
2014,12,07,14,53,10.90
2014,12,07,14,54,11.00
2014,12,07,14,55,11.00
2014,12,07,14,56,11.00
2014,12,07,14,57,11.10
2014,12,07,14,58,11.10
2014,12,07,14,59,11.10
2014,12,07,15,00,11.10
2014,12,07,15,01,11.10
2014,12,07,15,02,11.10
2014,12,07,15,03,11.10
2014,12,07,15,04,11.10
2014,12,07,15,05,11.20
2014,12,07,15,06,11.20
2014,12,07,15,07,11.20
2014,12,07,15,08,11.20
2014,12,07,15,09,11.20
2014,12,07,15,10,11.20
2014,12,07,15,11,11.10
2014,12,07,15,12,11.10
2014,12,07,15,13,11.10
2014,12,07,15,14,11.10
2014,12,07,15,15,11.00
2014,12,07,15,16,11.00
2014,12,07,15,17,11.00
2014,12,07,15,18,11.00
2014,12,07,15,19,11.00
2014,12,07,15,20,11.00
2014,12,07,15,21,11.00
2014,12,07,15,22,11.00
2014,12,07,15,23,11.00
2014,12,07,15,24,10.90
2014,12,07,15,25,10.90
2014,12,07,15,26,10.90
2014,12,07,15,27,10.90
2014,12,07,15,28,10.90
2014,12,07,15,29,10.80
2014,12,07,15,30,10.80
2014,12,07,15,31,10.80
2014,12,07,15,32,10.80
2014,12,07,15,33,10.80
2014,12,07,15,34,10.80
2014,12,07,15,35,10.80
2014,12,07,15,36,10.80
2014,12,07,15,37,10.80
2014,12,07,15,38,10.80
2014,12,07,15,39,10.80
2014,12,07,15,40,10.80
2014,12,07,15,41,10.80
2014,12,07,15,42,10.80
2014,12,07,15,43,10.80
2014,12,07,15,44,10.80
2014,12,07,15,45,10.90
2014,12,07,15,46,10.90
2014,12,07,15,47,10.90
2014,12,07,15,48,10.90
2014,12,07,15,49,10.90
2014,12,07,15,50,10.90
2014,12,07,15,51,10.80
2014,12,07,15,52,10.80
2014,12,07,15,53,10.80
2014,12,07,15,54,10.80
2014,12,07,15,55,10.80
2014,12,07,15,56,10.80
2014,12,07,15,57,10.80
2014,12,07,15,58,10.80
2014,12,07,15,59,10.70
2014,12,07,16,00,10.70
2014,12,07,16,01,10.70
2014,12,07,16,02,10.70
2014,12,07,16,03,10.70
2014,12,07,16,04,10.70
2014,12,07,16,05,10.70
2014,12,07,16,06,10.70
2014,12,07,16,07,10.70
2014,12,07,16,08,10.70
2014,12,07,16,09,10.70
2014,12,07,16,10,10.70
2014,12,07,16,11,10.70
2014,12,07,16,12,10.70
2014,12,07,16,13,10.70
2014,12,07,16,14,10.70
2014,12,07,16,15,10.70
2014,12,07,16,16,10.70
2014,12,07,16,17,10.70
2014,12,07,16,18,10.60
2014,12,07,16,19,10.60
2014,12,07,16,20,10.60
2014,12,07,16,21,10.60
2014,12,07,16,22,10.60
2014,12,07,16,23,10.60
2014,12,07,16,24,10.60
2014,12,07,16,25,10.60
2014,12,07,16,26,10.60
2014,12,07,16,27,10.60
2014,12,07,16,28,10.60
2014,12,07,16,29,10.60
2014,12,07,16,30,10.60
2014,12,07,16,31,10.60
2014,12,07,16,32,10.60
2014,12,07,16,33,10.60
2014,12,07,16,34,10.60
2014,12,07,16,35,10.50
2014,12,07,16,36,10.50
2014,12,07,16,37,10.50
2014,12,07,16,38,10.50
2014,12,07,16,39,10.50
2014,12,07,16,40,10.50
2014,12,07,16,41,10.50
2014,12,07,16,42,10.50
2014,12,07,16,43,10.40
2014,12,07,16,44,10.40
2014,12,07,16,45,10.50
2014,12,07,16,46,10.50
2014,12,07,16,47,10.50
2014,12,07,16,48,10.50
2014,12,07,16,49,10.60
2014,12,07,16,50,10.60
2014,12,07,16,51,10.60
2014,12,07,16,52,10.60
2014,12,07,16,53,10.60
2014,12,07,16,54,10.60
2014,12,07,16,55,10.60
2014,12,07,16,56,10.60
2014,12,07,16,57,10.60
2014,12,07,16,58,10.60
2014,12,07,16,59,10.60
2014,12,07,17,00,10.60
2014,12,07,17,01,10.60
2014,12,07,17,02,10.60
2014,12,07,17,03,10.60
2014,12,07,17,04,10.60
2014,12,07,17,05,10.60
2014,12,07,17,06,10.60
2014,12,07,17,07,10.60
2014,12,07,17,08,10.60
2014,12,07,17,09,10.60
2014,12,07,17,10,10.60
2014,12,07,17,11,10.50
2014,12,07,17,12,10.50
2014,12,07,17,13,10.50
2014,12,07,17,14,10.50
2014,12,07,17,15,10.50
2014,12,07,17,16,10.50
2014,12,07,17,17,10.50
2014,12,07,17,18,10.50
2014,12,07,17,19,10.50
2014,12,07,17,20,10.50
2014,12,07,17,21,10.60
2014,12,07,17,22,10.60
2014,12,07,17,23,10.60
2014,12,07,17,24,10.50
2014,12,07,17,25,10.50
2014,12,07,17,26,10.50
2014,12,07,17,27,10.50
2014,12,07,17,28,10.40
2014,12,07,17,29,10.40
2014,12,07,17,30,10.40
2014,12,07,17,31,10.40
2014,12,07,17,32,10.40
2014,12,07,17,33,10.40
2014,12,07,17,34,10.40
2014,12,07,17,35,10.40
2014,12,07,17,36,10.40
2014,12,07,17,37,10.30
2014,12,07,17,38,10.30
2014,12,07,17,39,10.30
2014,12,07,17,40,10.30
2014,12,07,17,41,10.30
2014,12,07,17,42,10.30
2014,12,07,17,43,10.30
2014,12,07,17,44,10.30
2014,12,07,17,45,10.20
2014,12,07,17,46,10.20
2014,12,07,17,47,10.20
2014,12,07,17,48,10.20
2014,12,07,17,49,10.20
2014,12,07,17,50,10.20
2014,12,07,17,51,10.20
2014,12,07,17,52,10.10
2014,12,07,17,53,10.10
2014,12,07,17,54,10.10
2014,12,07,17,55,10.10
2014,12,07,17,56,10.10
2014,12,07,17,57,10.10
2014,12,07,17,58,10.10
2014,12,07,17,59,10.10
2014,12,07,18,00,10.10
2014,12,07,18,01,10.10
2014,12,07,18,02,10.20
2014,12,07,18,03,10.20
2014,12,07,18,04,10.20
2014,12,07,18,05,10.20
2014,12,07,18,06,10.20
2014,12,07,18,07,10.20
2014,12,07,18,08,10.20
2014,12,07,18,09,10.20
2014,12,07,18,10,10.20
2014,12,07,18,11,10.20
2014,12,07,18,12,10.20
2014,12,07,18,13,10.30
2014,12,07,18,14,10.30
2014,12,07,18,15,10.30
2014,12,07,18,16,10.40
2014,12,07,18,17,10.40
2014,12,07,18,18,10.40
2014,12,07,18,19,10.40
2014,12,07,18,20,10.40
2014,12,07,18,21,10.40
2014,12,07,18,22,10.40
2014,12,07,18,23,10.40
2014,12,07,18,24,10.30
2014,12,07,18,25,10.30
2014,12,07,18,26,10.30
2014,12,07,18,27,10.30
2014,12,07,18,28,10.30
2014,12,07,18,29,10.30
2014,12,07,18,30,10.30
2014,12,07,18,31,10.30
2014,12,07,18,32,10.30
2014,12,07,18,33,10.30
2014,12,07,18,34,10.30
2014,12,07,18,35,10.30
2014,12,07,18,36,10.30
2014,12,07,18,37,10.40
2014,12,07,18,38,10.40
2014,12,07,18,39,10.40
2014,12,07,18,40,10.50
2014,12,07,18,41,10.50
2014,12,07,18,42,10.50
2014,12,07,18,43,10.50
2014,12,07,18,44,10.60
2014,12,07,18,45,10.60
2014,12,07,18,46,10.60
2014,12,07,18,47,10.60
2014,12,07,18,48,10.60
2014,12,07,18,49,10.60
2014,12,07,18,50,10.60
2014,12,07,18,51,10.60
2014,12,07,18,52,10.60
2014,12,07,18,53,10.60
2014,12,07,18,54,10.60
2014,12,07,18,55,10.60
2014,12,07,18,56,10.50
2014,12,07,18,57,10.50
2014,12,07,18,58,10.50
2014,12,07,18,59,10.50
2014,12,07,19,00,10.50
2014,12,07,19,01,10.50
2014,12,07,19,02,10.40
2014,12,07,19,03,10.40
2014,12,07,19,04,10.40
2014,12,07,19,05,10.40
2014,12,07,19,06,10.40
2014,12,07,19,07,10.40
2014,12,07,19,08,10.30
2014,12,07,19,09,10.30
2014,12,07,19,10,10.30
2014,12,07,19,11,10.30
2014,12,07,19,12,10.30
2014,12,07,19,13,10.20
2014,12,07,19,14,10.20
2014,12,07,19,15,10.20
2014,12,07,19,16,10.20
2014,12,07,19,17,10.20
2014,12,07,19,18,10.20
2014,12,07,19,19,10.10
2014,12,07,19,20,10.10
2014,12,07,19,21,10.10
2014,12,07,19,22,10.00
2014,12,07,19,23,10.00
2014,12,07,19,24,10.00
2014,12,07,19,25,9.90
2014,12,07,19,26,9.90
2014,12,07,19,27,9.90
2014,12,07,19,28,9.80
2014,12,07,19,29,9.80
2014,12,07,19,30,9.80
2014,12,07,19,31,9.80
2014,12,07,19,32,9.80
2014,12,07,19,33,9.80
2014,12,07,19,34,9.80
2014,12,07,19,35,9.80
2014,12,07,19,36,9.80
2014,12,07,19,37,9.80
2014,12,07,19,38,9.80
2014,12,07,19,39,9.80
2014,12,07,19,40,9.80
2014,12,07,19,41,9.80
2014,12,07,19,42,9.80
2014,12,07,19,43,9.80
2014,12,07,19,44,9.80
2014,12,07,19,45,9.80
2014,12,07,19,46,9.80
2014,12,07,19,47,9.80
2014,12,07,19,48,9.70
2014,12,07,19,49,9.70
2014,12,07,19,50,9.70
2014,12,07,19,51,9.70
2014,12,07,19,52,9.70
2014,12,07,19,53,9.70
2014,12,07,19,54,9.70
2014,12,07,19,55,9.70
2014,12,07,19,56,9.70
2014,12,07,19,57,9.70
2014,12,07,19,58,9.70
2014,12,07,19,59,9.70
2014,12,07,20,00,9.70
2014,12,07,20,01,9.70
2014,12,07,20,02,9.70
2014,12,07,20,03,9.70
2014,12,07,20,04,9.80
2014,12,07,20,05,9.80
2014,12,07,20,06,9.80
2014,12,07,20,07,9.80
2014,12,07,20,08,9.80
2014,12,07,20,09,9.80
2014,12,07,20,10,9.80
2014,12,07,20,11,9.90
2014,12,07,20,12,9.90
2014,12,07,20,13,10.00
2014,12,07,20,14,10.20
2014,12,07,20,15,10.30
2014,12,07,20,16,10.50
2014,12,07,20,17,10.60
2014,12,07,20,18,10.80
2014,12,07,20,19,10.90
2014,12,07,20,20,11.00
2014,12,07,20,21,11.10
2014,12,07,20,22,11.20
2014,12,07,20,23,11.20
2014,12,07,20,24,11.30
2014,12,07,20,25,11.30
2014,12,07,20,26,11.30
2014,12,07,20,27,11.40
2014,12,07,20,28,11.40
2014,12,07,20,29,11.40
2014,12,07,20,30,11.50
2014,12,07,20,31,11.60
2014,12,07,20,32,11.60
2014,12,07,20,33,11.70
2014,12,07,20,34,11.70
2014,12,07,20,35,11.70
2014,12,07,20,36,11.80
2014,12,07,20,37,11.80
2014,12,07,20,38,11.80
2014,12,07,20,39,11.90
2014,12,07,20,40,11.80
2014,12,07,20,41,11.80
2014,12,07,20,42,11.80
2014,12,07,20,43,11.90
2014,12,07,20,44,11.90
2014,12,07,20,45,11.90
2014,12,07,20,46,11.90
2014,12,07,20,47,11.90
2014,12,07,20,48,12.00
2014,12,07,20,49,12.00
2014,12,07,20,50,12.10
2014,12,07,20,51,12.20
2014,12,07,20,52,12.30
2014,12,07,20,53,12.30
2014,12,07,20,54,12.40
2014,12,07,20,55,12.40
2014,12,07,20,56,12.40
2014,12,07,20,57,12.50
2014,12,07,20,58,12.60
2014,12,07,20,59,12.70
2014,12,07,21,00,12.70
2014,12,07,21,01,12.70
2014,12,07,21,02,12.70
2014,12,07,21,03,12.70
2014,12,07,21,04,12.70
2014,12,07,21,05,12.70
2014,12,07,21,06,12.70
2014,12,07,21,07,12.70
2014,12,07,21,08,12.70
2014,12,07,21,09,12.80
2014,12,07,21,10,12.80
2014,12,07,21,11,12.80
2014,12,07,21,12,12.80
2014,12,07,21,13,12.80
2014,12,07,21,14,12.80
2014,12,07,21,15,12.70
2014,12,07,21,16,12.70
2014,12,07,21,17,12.70
2014,12,07,21,18,12.70
2014,12,07,21,19,12.70
2014,12,07,21,20,12.60
2014,12,07,21,21,12.60
2014,12,07,21,22,12.50
2014,12,07,21,23,12.40
2014,12,07,21,24,12.40
2014,12,07,21,25,12.30
2014,12,07,21,26,12.20
2014,12,07,21,27,12.10
2014,12,07,21,28,12.10
2014,12,07,21,29,12.00
2014,12,07,21,30,11.90
2014,12,07,21,31,11.90
2014,12,07,21,32,11.90
2014,12,07,21,33,11.90
2014,12,07,21,34,11.80
2014,12,07,21,35,11.80
2014,12,07,21,36,11.80
2014,12,07,21,37,11.70
2014,12,07,21,38,11.70
2014,12,07,21,39,11.70
2014,12,07,21,40,11.60
2014,12,07,21,41,11.60
2014,12,07,21,42,11.70
2014,12,07,21,43,11.70
2014,12,07,21,44,11.60
2014,12,07,21,45,11.60
2014,12,07,21,46,11.60
2014,12,07,21,47,11.60
2014,12,07,21,48,11.60
2014,12,07,21,49,11.50
2014,12,07,21,50,11.40
2014,12,07,21,51,11.40
2014,12,07,21,52,11.40
2014,12,07,21,53,11.30
2014,12,07,21,54,11.30
2014,12,07,21,55,11.30
2014,12,07,21,56,11.20
2014,12,07,21,57,11.20
2014,12,07,21,58,11.10
2014,12,07,21,59,11.10
2014,12,07,22,00,11.10
2014,12,07,22,01,11.00
2014,12,07,22,02,10.90
2014,12,07,22,03,10.90
2014,12,07,22,04,10.80
2014,12,07,22,05,10.80
2014,12,07,22,06,10.80
2014,12,07,22,07,10.70
2014,12,07,22,08,10.70
2014,12,07,22,09,10.70
2014,12,07,22,10,10.70
2014,12,07,22,11,10.60
2014,12,07,22,12,10.60
2014,12,07,22,13,10.50
2014,12,07,22,14,10.50
2014,12,07,22,15,10.40
2014,12,07,22,16,10.40
2014,12,07,22,17,10.40
2014,12,07,22,18,10.30
2014,12,07,22,19,10.30
2014,12,07,22,20,10.30
2014,12,07,22,21,10.30
2014,12,07,22,22,10.20
2014,12,07,22,23,10.20
2014,12,07,22,24,10.10
2014,12,07,22,25,10.10
2014,12,07,22,26,10.00
2014,12,07,22,27,9.90
2014,12,07,22,28,9.90
2014,12,07,22,29,9.80
2014,12,07,22,30,9.80
2014,12,07,22,31,9.70
2014,12,07,22,32,9.60
2014,12,07,22,33,9.60
2014,12,07,22,34,9.60
2014,12,07,22,35,9.50
2014,12,07,22,36,9.40
2014,12,07,22,37,9.40
2014,12,07,22,38,9.40
2014,12,07,22,39,9.40
2014,12,07,22,40,9.30
2014,12,07,22,41,9.30
2014,12,07,22,42,9.30
2014,12,07,22,43,9.30
2014,12,07,22,44,9.30
2014,12,07,22,45,9.20
2014,12,07,22,46,9.20
2014,12,07,22,47,9.20
2014,12,07,22,48,9.10
2014,12,07,22,49,9.10
2014,12,07,22,50,9.10
2014,12,07,22,51,9.00
2014,12,07,22,52,9.00
2014,12,07,22,53,8.90
2014,12,07,22,54,8.90
2014,12,07,22,55,8.90
2014,12,07,22,56,8.90
2014,12,07,22,57,8.80
2014,12,07,22,58,8.80
2014,12,07,22,59,8.80
2014,12,07,23,00,8.80
2014,12,07,23,01,8.80
2014,12,07,23,02,8.80
2014,12,07,23,03,8.80
2014,12,07,23,04,8.80
2014,12,07,23,05,8.80
2014,12,07,23,06,8.80
2014,12,07,23,07,8.80
2014,12,07,23,08,8.80
2014,12,07,23,09,8.80
2014,12,07,23,10,8.80
2014,12,07,23,11,8.80
2014,12,07,23,12,8.80
2014,12,07,23,13,8.80
2014,12,07,23,14,8.80
2014,12,07,23,15,8.80
2014,12,07,23,16,8.80
2014,12,07,23,17,8.80
2014,12,07,23,18,8.80
2014,12,07,23,19,8.80
2014,12,07,23,20,8.80
2014,12,07,23,21,8.80
2014,12,07,23,22,8.80
2014,12,07,23,23,8.90
2014,12,07,23,24,8.90
2014,12,07,23,25,8.90
2014,12,07,23,26,9.00
2014,12,07,23,27,9.00
2014,12,07,23,28,9.10
2014,12,07,23,29,9.10
2014,12,07,23,30,9.20
2014,12,07,23,31,9.20
2014,12,07,23,32,9.20
2014,12,07,23,33,9.30
2014,12,07,23,34,9.30
2014,12,07,23,35,9.30
2014,12,07,23,36,9.30
2014,12,07,23,37,9.30
2014,12,07,23,38,9.30
2014,12,07,23,39,9.40
2014,12,07,23,40,9.40
2014,12,07,23,41,9.40
2014,12,07,23,42,9.40
2014,12,07,23,43,9.40
2014,12,07,23,44,9.50
2014,12,07,23,45,9.50
2014,12,07,23,46,9.50
2014,12,07,23,47,9.50
2014,12,07,23,48,9.50
2014,12,07,23,49,9.50
2014,12,07,23,50,9.50
2014,12,07,23,51,9.40
2014,12,07,23,52,9.40
2014,12,07,23,53,9.40
2014,12,07,23,54,9.40
2014,12,07,23,55,9.40
2014,12,07,23,56,9.30
2014,12,07,23,57,9.30
2014,12,07,23,58,9.30
2014,12,07,23,59,9.30
